GW4005 Weather Reports


time (UTC)temp
C
wind
direction
speed
KPH
gust
KPH
rain 1hr
cm
rain 24hr
cm
rain mn
cm
humidity
%
barometer
mb
20260508111530 7 176 9.7 19.3 0.00 1.09 0.00 81 1004.2
20260508111018 7 177 8.0 19.3 0.00 1.09 0.00 81 1004.1
20260508110515 7 195 6.4 19.3 0.00 1.09 0.00 80 1004.2
20260508110036 7 222 6.4 17.7 0.00 1.09 0.00 81 1004.0
20260508105515 7 235 6.4 17.7 0.00 1.09 0.00 81 1003.9
20260508105014 7 176 4.8 17.7 0.00 1.09 0.00 81 1003.9
20260508104529 7 192 3.2 16.1 0.00 1.09 0.00 81 1003.9
20260508104015 7 209 4.8 16.1 0.00 1.09 0.00 82 1003.8
20260508103515 7 233 4.8 16.1 0.00 1.09 0.00 81 1003.8
20260508103038 7 198 8.0 16.1 0.00 1.09 0.00 81 1003.7
20260508102515 7 262 3.2 17.7 0.00 1.09 0.00 82 1003.7
20260508102013 7 199 8.0 17.7 0.00 1.09 0.00 82 1003.7
20260508101538 7 189 8.0 17.7 0.00 1.09 0.00 82 1003.7
20260508101015 7 233 8.0 17.7 0.00 1.09 0.00 83 1003.6
20260508100514 7 184 4.8 16.1 0.00 1.09 0.00 84 1003.5
20260508100030 7 230 4.8 16.1 0.00 1.09 0.00 84 1003.4
20260508095514 6 163 3.2 12.9 0.00 1.12 0.00 85 1003.4
20260508095015 6 196 4.8 12.9 0.00 1.12 0.00 85 1003.4
20260508094542 6 175 4.8 14.5 0.00 1.12 0.00 85 1003.3
20260508094014 6 211 3.2 16.1 0.00 1.12 0.00 86 1003.2
20260508093515 6 193 6.4 16.1 0.00 1.12 0.00 87 1003.3
20260508093030 6 210 6.4 16.1 0.00 1.12 0.00 87 1003.2
20260508092517 6 211 4.8 12.9 0.00 1.12 0.00 87 1003.3
20260508092015 6 166 4.8 11.3 0.00 1.12 0.00 88 1003.2
20260508091545 6 161 3.2 14.5 0.00 1.12 0.00 88 1003.3
20260508091015 6 173 4.8 14.5 0.00 1.12 0.00 88 1003.3
20260508090515 6 207 3.2 11.3 0.00 1.12 0.00 88 1003.3
20260508090042 6 148 4.8 11.3 0.00 1.12 0.00 88 1003.3
20260508085517 6 187 3.2 11.3 0.00 1.14 0.00 89 1003.2
20260508085019 6 180 4.8 11.3 0.00 1.14 0.00 88 1003.2
20260508084530 6 192 3.2 11.3 0.00 1.14 0.00 89 1003.2
20260508084016 6 181 3.2 11.3 0.00 1.14 0.00 89 1003.3
20260508083515 5 164 4.8 11.3 0.00 1.14 0.00 89 1003.3
20260508083030 5 193 4.8 11.3 0.00 1.14 0.00 89 1003.2
20260508082517 5 188 4.8 11.3 0.00 1.14 0.00 88 1003.2
20260508082014 5 149 4.8 11.3 0.00 1.14 0.00 88 1003.2
20260508081539 6 152 4.8 11.3 0.00 1.14 0.00 88 1003.3
20260508081017 6 164 4.8 8.0 0.00 1.14 0.00 87 1003.3
20260508080514 6 164 3.2 11.3 0.00 1.14 0.00 87 1003.3
20260508080035 6 164 4.8 12.9 0.00 1.14 0.00 88 1003.2
20260508075513 6 156 4.8 12.9 0.00 1.14 0.00 88 1003.5
20260508075013 6 179 6.4 12.9 0.00 1.14 0.00 88 1003.5
20260508074532 6 204 4.8 11.3 0.00 1.14 0.00 88 1003.4
20260508074016 6 200 4.8 11.3 0.00 1.14 0.00 88 1003.4
20260508073513 6 196 4.8 11.3 0.00 1.14 0.00 88 1003.4
20260508073035 6 179 4.8 11.3 0.00 1.14 0.00 87 1003.4
20260508072516 6 179 3.2 11.3 0.00 1.14 0.00 88 1003.4
20260508072016 6 179 3.2 11.3 0.00 1.14 0.00 87 1003.3
20260508071536 6 179 3.2 9.7 0.00 1.14 0.00 87 1003.3
20260508071015 6 179 3.2 9.7 0.00 1.14 0.00 88 1003.4
20260508070517 6 179 4.8 11.3 0.00 1.14 0.00 88 1003.4
20260508070046 6 179 4.8 14.5 0.00 1.14 0.00 88 1003.4
20260508065517 6 160 8.0 17.7 0.00 1.14 0.00 89 1003.6
20260508065013 6 177 6.4 17.7 0.00 1.14 0.00 88 1003.6
20260508064535 6 161 6.4 17.7 0.00 1.14 0.00 88 1003.7
20260508064017 6 168 6.4 16.1 0.00 1.14 0.00 88 1003.6
20260508063513 6 179 8.0 16.1 0.00 1.14 0.00 88 1003.6
20260508063034 6 180 4.8 12.9 0.00 1.14 0.00 89 1003.5
20260508062515 6 195 6.4 11.3 0.00 1.14 0.00 89 1003.4
20260508062016 6 206 3.2 12.9 0.00 1.14 0.00 89 1003.4
20260508061534 6 196 4.8 12.9 0.00 1.14 0.00 89 1003.5
20260508061014 6 187 4.8 14.5 0.00 1.14 0.00 89 1003.5
20260508060513 6 167 6.4 14.5 0.00 1.14 0.00 89 1003.5
20260508060036 6 186 4.8 16.1 0.00 1.14 0.00 89 1003.5
20260508055516 6 176 4.8 16.1 0.00 1.19 0.00 88 1003.5
20260508055016 6 181 8.0 17.7 0.00 1.19 0.00 88 1003.5
20260508054541 6 177 6.4 17.7 0.00 1.19 0.00 88 1003.6
20260508054014 6 168 4.8 19.3 0.00 1.19 0.00 87 1003.5
20260508053517 6 211 6.4 19.3 0.00 1.19 0.00 86 1003.5
20260508053030 7 175 6.4 19.3 0.00 1.19 0.00 86 1003.5
20260508052515 7 187 8.0 17.7 0.00 1.19 0.00 85 1003.6
20260508052014 7 150 6.4 22.5 0.00 1.19 0.00 85 1003.8
20260508051533 7 183 9.7 22.5 0.00 1.19 0.00 84 1003.9
20260508051015 7 232 6.4 16.1 0.00 1.19 0.00 84 1003.9
20260508050513 7 168 3.2 16.1 0.00 1.19 0.00 84 1003.6
20260508050030 7 218 3.2 14.5 0.00 1.19 0.00 83 1003.6
20260508045515 7 186 4.8 14.5 0.00 1.30 0.00 84 1003.6
20260508045014 7 193 8.0 14.5 0.00 1.30 0.00 84 1003.8
20260508044530 7 210 6.4 14.5 0.00 1.30 0.00 84 1003.6
20260508044014 7 183 4.8 16.1 0.00 1.30 0.00 84 1003.6
20260508043514 7 201 4.8 17.7 0.00 1.30 0.00 84 1003.8
20260508043030 7 212 8.0 20.9 0.00 1.30 0.00 83 1003.9
20260508042515 7 190 9.7 20.9 0.00 1.30 0.00 83 1003.9
20260508042014 7 214 8.0 19.3 0.00 1.30 0.00 83 1003.9
20260508041529 8 154 8.0 17.7 0.00 1.30 0.00 82 1003.7
20260508041014 8 225 6.4 17.7 0.00 1.30 0.00 82 1003.6
20260508040514 8 210 6.4 17.7 0.00 1.30 0.00 83 1003.6
20260508040036 7 220 4.8 16.1 0.00 1.30 0.00 83 1003.7
20260508035516 7 191 4.8 16.1 0.00 1.30 0.00 83 1003.7
20260508035015 7 177 4.8 16.1 0.00 1.30 0.00 83 1003.6
20260508034538 7 183 6.4 16.1 0.00 1.30 0.00 83 1003.6
20260508034014 7 205 4.8 14.5 0.00 1.30 0.00 83 1003.6
20260508033514 7 181 4.8 14.5 0.00 1.30 0.00 82 1003.4
20260508033036 7 192 8.0 16.1 0.00 1.30 0.00 82 1003.4
20260508032515 7 195 6.4 16.1 0.00 1.30 0.00 82 1003.4
20260508032015 7 179 1.6 9.7 0.00 1.30 0.00 82 1003.2
20260508031536 7 196 3.2 9.7 0.00 1.30 0.00 82 1003.2
20260508031013 7 180 1.6 6.4 0.00 1.30 0.00 81 1003.3
20260508030515 7 0 0.0 6.4 0.00 1.30 0.00 81 1003.4
20260508030030 7 0 3.2 9.7 0.00 1.30 0.00 80 1003.5
20260508025516 7 179 4.8 9.7 0.00 1.30 1.30 80 1003.5
20260508025014 7 164 4.8 11.3 0.00 1.30 1.30 80 1003.5
20260508024536 7 157 4.8 12.9 0.00 1.30 1.30 80 1003.6
20260508024015 7 144 6.4 14.5 0.00 1.30 1.30 79 1003.7
20260508023515 7 148 4.8 14.5 0.00 1.30 1.30 79 1003.7
20260508023036 8 152 6.4 12.9 0.00 1.30 1.30 78 1003.7
20260508022514 8 189 4.8 12.9 0.00 1.30 1.30 77 1003.7
20260508022019 8 151 6.4 12.9 0.00 1.30 1.30 77 1003.8
20260508021535 8 152 4.8 12.9 0.00 1.30 1.30 76 1003.8
20260508021018 8 204 4.8 14.5 0.00 1.30 1.30 76 1003.8
20260508020517 8 191 4.8 17.7 0.00 1.30 1.30 76 1003.7
20260508020033 8 171 4.8 17.7 0.00 1.30 1.30 76 1003.7
20260508015517 8 214 6.4 14.5 0.00 1.30 1.30 76 1003.7
20260508015015 8 196 4.8 14.5 0.00 1.30 1.30 76 1003.7
20260508014532 8 198 6.4 17.7 0.00 1.30 1.30 77 1003.7
20260508014014 8 163 8.0 17.7 0.00 1.30 1.30 77 1003.8
20260508013519 8 203 6.4 16.1 0.00 1.30 1.30 78 1003.7
20260508013035 8 161 6.4 16.1 0.00 1.30 1.30 79 1003.8
20260508012518 7 176 4.8 14.5 0.00 1.30 1.30 81 1003.7
20260508012019 7 154 6.4 14.5 0.00 1.30 1.30 82 1003.6
20260508011530 7 226 4.8 12.9 0.00 1.30 1.30 84 1003.6
20260508011017 7 166 6.4 12.9 0.00 1.30 1.30 85 1003.6
20260508010518 7 212 3.2 14.5 0.00 1.30 1.30 87 1003.7
20260508010036 7 168 4.8 14.5 0.00 1.30 1.30 87 1003.6
20260508005517 7 207 3.2 14.5 0.00 1.30 1.30 88 1003.6
20260508005018 7 179 4.8 14.5 0.00 1.30 1.30 88 1003.6
20260508004534 7 170 8.0 14.5 0.00 1.30 1.30 88 1003.6
20260508004016 7 150 6.4 14.5 0.00 1.30 1.30 88 1003.5
20260508003517 7 165 6.4 14.5 0.00 1.30 1.30 88 1003.6
20260508003033 7 151 6.4 14.5 0.00 1.30 1.30 88 1003.7
20260508002515 7 156 6.4 14.5 0.00 1.30 1.30 88 1003.6
20260508002017 7 182 6.4 12.9 0.00 1.30 1.30 88 1003.5
20260508001547 7 195 4.8 11.3 0.00 1.30 1.30 88 1003.7
20260508001018 7 147 3.2 11.3 0.00 1.30 1.30 89 1003.6
20260508000518 6 173 3.2 11.3 0.00 1.30 1.30 89 1003.6
20260508000035 6 144 4.8 12.9 0.00 1.30 1.30 89 1003.6
20260507235521 6 162 4.8 12.9 0.00 1.30 1.30 89 1003.6
20260507235017 6 175 3.2 17.7 0.00 1.30 1.30 89 1003.5
20260507234534 6 152 6.4 17.7 0.00 1.30 1.30 89 1003.5
20260507234017 6 164 6.4 16.1 0.00 1.30 1.30 89 1003.6
20260507233514 6 176 4.8 14.5 0.00 1.30 1.30 89 1003.6
20260507233034 6 200 6.4 14.5 0.00 1.30 1.30 89 1003.5
20260507232516 7 181 6.4 16.1 0.00 1.30 1.30 89 1003.5
20260507232017 7 183 4.8 16.1 0.00 1.30 1.30 89 1003.5
20260507231531 7 173 6.4 24.1 0.00 1.30 1.30 89 1003.3
20260507231013 7 214 6.4 24.1 0.00 1.30 1.30 89 1003.0
20260507230514 7 163 9.7 17.7 0.00 1.30 1.30 89 1003.3
20260507230036 7 150 6.4 19.3 0.00 1.30 1.30 88 1003.3
20260507225513 7 214 8.0 20.9 0.00 1.30 1.30 88 1003.3
20260507225017 7 199 8.0 20.9 0.00 1.30 1.30 87 1003.3
20260507224535 7 209 4.8 17.7 0.00 1.30 1.30 87 1003.2
20260507224013 7 190 6.4 19.3 0.00 1.30 1.30 86 1003.2
20260507223515 8 189 6.4 19.3 0.00 1.30 1.30 86 1003.2
20260507223031 8 210 8.0 19.3 0.00 1.30 1.30 85 1003.1
20260507222516 8 239 9.7 25.7 0.00 1.30 1.30 85 1003.1
20260507222016 8 160 11.3 25.7 0.00 1.30 1.30 84 1003.1
20260507221533 8 191 9.7 20.9 0.00 1.30 1.30 83 1003.1
20260507221016 8 180 6.4 17.7 0.00 1.30 1.30 82 1003.1
20260507220513 8 183 8.0 19.3 0.00 1.30 1.30 81 1003.1
20260507220033 9 201 9.7 19.3 0.00 1.30 1.30 81 1003.0
20260507215515 9 181 6.4 19.3 0.00 1.30 1.30 80 1002.9
20260507215015 10 148 6.4 19.3 0.00 1.30 1.30 79 1003.0
20260507214530 10 195 8.0 19.3 0.00 1.30 1.30 79 1002.9
20260507214013 10 188 6.4 19.3 0.00 1.30 1.30 79 1002.8
20260507213514 10 214 3.2 19.3 0.00 1.30 1.30 80 1002.9
20260507213040 10 213 11.3 19.3 0.00 1.30 1.30 80 1002.8
20260507212516 10 193 8.0 22.5 0.00 1.30 1.30 80 1002.8
20260507212017 10 175 8.0 22.5 0.00 1.30 1.30 80 1002.8
20260507211543 10 146 6.4 20.9 0.00 1.30 1.30 81 1002.8
20260507211016 10 177 9.7 24.1 0.00 1.30 1.30 80 1002.8
20260507210514 10 195 11.3 24.1 0.00 1.30 1.30 80 1002.7
20260507210035 10 189 8.0 24.1 0.00 1.30 1.30 79 1002.6
20260507205513 10 196 11.3 24.1 0.00 1.30 1.30 79 1002.7
20260507205014 11 185 8.0 17.7 0.00 1.30 1.30 78 1002.6
20260507204533 11 198 6.4 22.5 0.00 1.30 1.30 77 1002.6
20260507204013 11 181 8.0 22.5 0.00 1.30 1.30 77 1002.4
20260507203518 11 199 6.4 22.5 0.00 1.30 1.30 77 1002.4
20260507203031 11 208 8.0 27.4 0.00 1.30 1.30 79 1002.4
20260507202515 11 155 9.7 27.4 0.00 1.30 1.30 80 1002.5
20260507202014 11 163 11.3 27.4 0.00 1.30 1.30 82 1002.5
20260507201536 11 191 11.3 22.5 0.00 1.30 1.30 84 1002.5
20260507201016 10 191 11.3 25.7 0.00 1.30 1.30 85 1002.4
20260507200515 10 191 9.7 27.4 0.00 1.30 1.30 86 1002.6
20260507200037 10 201 11.3 27.4 0.00 1.30 1.30 87 1002.6
20260507195517 10 161 12.9 27.4 0.00 1.30 1.30 87 1002.7
20260507195015 10 198 9.7 24.1 0.00 1.30 1.30 88 1002.7
20260507194532 10 180 9.7 24.1 0.00 1.30 1.30 88 1002.6
20260507194012 10 201 12.9 24.1 0.00 1.30 1.30 88 1002.7
20260507193512 10 148 9.7 27.4 0.00 1.30 1.30 90 1002.7
20260507193038 10 160 9.7 27.4 0.00 1.30 1.30 90 1002.7
20260507192516 10 204 12.9 27.4 0.00 1.30 1.30 90 1002.7
20260507192013 10 185 11.3 22.5 0.00 1.30 1.30 90 1002.8
20260507191531 10 187 6.4 20.9 0.00 1.30 1.30 90 1002.7
20260507191013 10 181 11.3 20.9 0.00 1.30 1.30 90 1002.7
20260507190513 10 192 9.7 20.9 0.00 1.30 1.30 91 1002.7
20260507190032 10 195 11.3 22.5 0.00 1.30 1.30 91 1002.6
20260507185514 10 161 9.7 22.5 0.00 1.30 1.30 91 1002.6
20260507185017 11 190 9.7 22.5 0.00 1.30 1.30 93 1002.5
20260507184533 11 212 8.0 22.5 0.00 1.30 1.30 94 1002.5
20260507184016 10 218 6.4 16.1 0.00 1.30 1.30 94 1002.5
20260507183515 10 206 4.8 19.3 0.00 1.30 1.30 94 1002.5
20260507183034 10 208 6.4 19.3 0.00 1.30 1.30 94 1002.5
20260507182513 10 160 8.0 19.3 0.00 1.30 1.30 95 1002.8
20260507182013 10 198 9.7 19.3 0.00 1.30 1.30 96 1002.9
20260507181531 10 161 8.0 20.9 0.00 1.30 1.30 96 1002.9
20260507181014 9 191 9.7 20.9 0.00 1.30 1.30 95 1002.8
20260507180517 9 216 8.0 17.7 0.00 1.30 1.30 95 1002.8
20260507180045 9 211 6.4 19.3 0.03 1.30 1.30 95 1002.9
20260507175515 9 171 8.0 19.3 0.03 1.30 1.30 96 1002.9
20260507175015 8 173 9.7 24.1 0.03 1.30 1.30 95 1002.9
20260507174533 9 171 6.4 24.1 0.03 1.30 1.30 95 1002.9
20260507174015 9 236 11.3 24.1 0.03 1.30 1.30 96 1002.9
20260507173519 9 201 9.7 22.5 0.03 1.30 1.30 95 1002.9
20260507173036 9 160 6.4 22.5 0.03 1.30 1.30 96 1003.0
20260507172516 9 217 11.3 22.5 0.03 1.30 1.30 96 1003.1
20260507172015 8 223 9.7 20.9 0.03 1.30 1.30 96 1003.2
20260507171529 8 223 9.7 22.5 0.03 1.30 1.30 96 1003.2
20260507171015 7 198 11.3 22.5 0.03 1.30 1.30 96 1003.1
20260507170513 7 229 6.4 25.7 0.03 1.30 1.30 96 1002.5
20260507170045 7 210 6.4 25.7 0.00 1.27 1.27 96 1002.7
20260507165513 7 169 8.0 25.7 0.00 1.27 1.27 95 1002.9
20260507165012 7 195 11.3 20.9 0.00 1.27 1.27 96 1003.3
20260507164531 7 196 6.4 20.9 0.00 1.27 1.27 96 1003.1
20260507164015 7 173 8.0 24.1 0.00 1.27 1.27 96 1003.0
20260507163514 7 206 11.3 27.4 0.03 1.27 1.27 96 1003.5
20260507163030 6 185 9.7 27.4 0.03 1.27 1.27 96 1003.6
20260507162513 6 179 12.9 29.0 0.03 1.27 1.27 96 1003.7
20260507162014 6 187 11.3 29.0 0.03 1.27 1.27 95 1003.9
20260507161530 6 212 11.3 29.0 0.03 1.27 1.27 95 1003.6
20260507161016 6 188 9.7 25.7 0.05 1.27 1.27 95 1003.2
20260507160516 7 195 11.3 20.9 0.08 1.27 1.27 95 1003.1
20260507160032 7 195 8.0 20.9 0.10 1.27 1.27 95 1003.0
20260507155513 7 252 4.8 14.5 0.13 1.27 1.27 95 1002.7
20260507155012 7 220 4.8 14.5 0.15 1.27 1.27 95 1003.3
20260507154532 7 200 6.4 20.9 0.18 1.27 1.27 95 1003.0
20260507154019 7 181 8.0 24.1 0.20 1.27 1.27 95 1003.7
20260507153514 7 211 8.0 24.1 0.20 1.24 1.24 95 1003.9
20260507153031 7 202 11.3 20.9 0.23 1.24 1.24 95 1003.6
20260507152515 7 220 6.4 19.3 0.25 1.24 1.24 96 1003.5
20260507152015 7 173 11.3 19.3 0.28 1.24 1.24 95 1002.7
20260507151533 7 197 8.0 22.5 0.28 1.22 1.22 95 1003.9
20260507151018 7 139 6.4 22.5 0.33 1.22 1.22 95 1003.9
20260507150516 7 158 11.3 22.5 0.33 1.19 1.19 95 1003.9
20260507150030 7 179 4.8 19.3 0.36 1.17 1.17 95 1003.9
20260507145515 7 206 6.4 19.3 0.38 1.14 1.14 95 1003.7
20260507145016 7 236 6.4 19.3 0.41 1.12 1.12 95 1003.6
20260507144530 7 191 4.8 17.7 0.43 1.09 1.09 95 1003.7
20260507144014 7 196 8.0 17.7 0.41 1.04 1.04 95 1003.6
20260507143513 7 195 6.4 12.9 0.43 1.04 1.04 95 1003.5
20260507143031 7 195 6.4 12.9 0.46 1.02 1.02 95 1003.4
20260507142518 7 180 6.4 14.5 0.46 0.99 0.99 94 1003.6
20260507142015 7 192 4.8 14.5 0.48 0.97 0.97 94 1003.7
20260507141529 8 263 4.8 12.9 0.48 0.94 0.94 94 1003.6
20260507141015 8 188 4.8 12.9 0.46 0.89 0.89 94 1004.0
20260507140516 9 245 3.2 8.0 0.46 0.86 0.86 95 1003.9
20260507140036 9 203 3.2 9.7 0.46 0.81 0.81 95 1003.8
20260507135514 9 221 3.2 17.7 0.46 0.76 0.76 95 1004.0
20260507135016 9 258 4.8 17.7 0.43 0.71 0.71 94 1003.8
20260507134530 10 279 8.0 17.7 0.38 0.66 0.66 96 1003.7
20260507134014 10 210 4.8 12.9 0.36 0.64 0.64 96 1003.3
20260507133513 8 131 6.4 12.9 0.30 0.58 0.58 96 1003.5
20260507133037 8 126 6.4 22.5 0.28 0.56 0.56 96 1003.9
20260507132512 7 123 8.0 24.1 0.23 0.51 0.51 95 1004.2
20260507132014 7 167 9.7 24.1 0.20 0.48 0.48 95 1004.6
20260507131538 7 206 8.0 22.5 0.18 0.46 0.46 95 1004.8
20260507131014 7 198 8.0 25.7 0.15 0.43 0.43 94 1004.8
20260507130517 7 195 11.3 25.7 0.10 0.38 0.38 94 1005.0
20260507130036 7 149 8.0 22.5 0.05 0.33 0.33 94 1005.0
20260507125515 7 216 9.7 22.5 0.03 0.30 0.30 94 1005.0
20260507125014 7 202 9.7 22.5 0.00 0.28 0.28 94 1004.8
20260507124532 7 141 6.4 20.9 0.00 0.28 0.28 94 1004.7
20260507124016 7 152 6.4 19.3 0.00 0.28 0.28 94 1004.7
20260507123514 7 241 8.0 24.1 0.00 0.28 0.28 94 1004.7
20260507123034 7 197 6.4 24.1 0.03 0.28 0.28 94 1004.6
20260507122518 7 189 6.4 22.5 0.03 0.28 0.28 93 1004.5
20260507122018 8 214 6.4 17.7 0.05 0.28 0.28 93 1004.6
20260507121533 8 201 4.8 17.7 0.08 0.28 0.28 93 1004.3
20260507121015 8 197 4.8 16.1 0.08 0.28 0.28 93 1003.9
20260507120514 8 191 4.8 16.1 0.08 0.28 0.28 92 1004.4
20260507120033 8 214 6.4 16.1 0.08 0.28 0.28 93 1004.5
20260507115517 8 220 6.4 16.1 0.08 0.28 0.28 92 1004.4
20260507115013 9 216 6.4 16.1 0.08 0.28 0.28 92 1004.2
20260507114530 9 240 4.8 12.9 0.08 0.28 0.28 92 1004.2
20260507114014 9 233 4.8 12.9 0.08 0.28 0.28 93 1004.0
20260507113514 10 196 3.2 12.9 0.08 0.28 0.28 93 1004.3
20260507113031 10 260 3.2 9.7 0.05 0.25 0.25 93 1004.4
20260507112518 9 177 4.8 17.7 0.05 0.25 0.25 93 1004.2
20260507112015 9 167 6.4 20.9 0.03 0.23 0.23 92 1004.4